Location: TAAA CAC
(31.8680°N, 109.5150°W)
Time: 21:42:12
(UTC-07:00)

BlueWalker 3 - Pass Details

Date: 21 March 2026
Orbit: 449 x 457 km, 53.2° (Epoch: 20 April)

Event Time Altitude Azimuth Distance (km) Brightness Sun altitude
Rises 19:13:40 0° 211° (SSW) 2,441 5.8 -10.0°
Reaches altitude 10° 19:15:49 10° 205° (SSW) 1,574 4.7 -10.4°
Maximum altitude 19:19:15 49° 130° (SE) 586 1.9 -11.2°
Enters shadow 19:22:36 11° 54° (NE) 1,545 4.0 -11.9°
